Flag for U.S.A. Weather past 2 weeks in Terre Haute, Indiana, U.S.A.

Now
76 °F

Broken clouds.


Feels Like: 78 °F
Forecast: 52 / 77 °F
Wind: 8 mph from Northwest

Location: Terre Haute International Airport - Hulman Field

Current Time: Jul 29, 2014 at 7:42:37 PM

Latest Report: Jul 29, 2014 at 6:53 PM


Visibility: 10 mi

Pressure: 30.04 "Hg

Humidity: 52%

Dew point: 57 °F

Location of Terre HauteLocation

Historic Weather in Terre Haute — Graph

°F

Terre Haute temperature yesterday

Maximum temperature yesterday: 74 °F (at 2:53 PM)
Minimum temperature yesterday: 54 °F (at 11:53 PM)
Average temperature yesterday: 67 °F

Past Weeks' High & Low Weather Summary

 TemperatureHumidityPressure
High86 °F (Jul 27, 3:53 PM)97% (Jul 21, 1:53 AM)30.17 "Hg (Jul 21, 1:53 AM)
Low52 °F (Jul 17, 3:53 AM)43% (Jul 17, 4:53 PM)29.75 "Hg (Jul 27, 4:53 PM)
Average68 °F75%30.02 "Hg
* Reported Jul 14 5:53 PM — Jul 29 5:53 PM, Terre Haute, Weather by CustomWeather, © 2014

Note: Actual official high and low records may vary slightly from our data, if they occured in-between our weather recording intervals... More about our weather records

Advertising

Terre Haute weather history for previous 24 hours

 ConditionsComfort  
Time TempWeatherWind HumidityBarometerVisibility
5:53 PM
Jul 29
75 °FScattered clouds.8 mph52%30.05 "Hg10 mi
4:53 PM75 °FCloudy.6 mph54%30.06 "Hg10 mi
3:53 PM76 °FPartly sunny.8 mph52%30.07 "Hg10 mi
2:53 PM75 °FBroken clouds.6 mph55%30.08 "Hg10 mi
1:53 PM73 °FPartly sunny.9 mph57%30.08 "Hg10 mi
12:53 PM74 °FSunny.5 mph56%30.09 "Hg10 mi
11:53 AM71 °FSunny.6 mph61%30.09 "Hg10 mi
10:53 AM68 °FSunny.7 mph65%30.08 "Hg10 mi
9:53 AM65 °FSunny.7 mph70%30.09 "Hg10 mi
8:53 AM61 °FPartly sunny.3 mph78%30.09 "Hg10 mi
7:53 AM55 °FSunny.No wind90%30.08 "Hg10 mi
6:53 AM53 °FPassing clouds.3 mph89%30.07 "Hg10 mi
5:53 AM56 °FOvercast.3 mph84%30.07 "Hg10 mi
4:53 AM55 °FOvercast.3 mph87%30.07 "Hg10 mi
3:53 AM52 °FClear.3 mph89%30.06 "Hg10 mi
2:53 AM53 °FClear.No wind86%30.07 "Hg10 mi
1:53 AM52 °FClear.3 mph89%30.08 "Hg10 mi
12:53 AM54 °FClear.No wind86%30.07 "Hg10 mi
11:53 PM
Jul 28
54 °FClear.3 mph86%30.06 "Hg10 mi
10:53 PM58 °FClear.3 mph67%30.07 "Hg10 mi
9:53 PM60 °FSunny.7 mph62%30.07 "Hg10 mi
8:53 PM64 °FSunny.10 mph56%30.07 "Hg10 mi
7:53 PM68 °FScattered clouds.12 mph63%30.06 "Hg10 mi
Weather by CustomWeather, © 2014

See weather overviewHow to use our weather pages